Terminal Aerodrome Forecast
Issued by NWS Melbourne, FL

Home | Current Version | Previous Version | Text Only | Print | Product List | Glossary On
Versions: 1 2 3 4 5 6 7 8 9 10 11 12 13 14 15 16
000
FTUS42 KMLB 220700 AAA
TAFVRB
TAF AMD
KVRB 220720Z 2207/2306 00000KT 6SM BR FEW002 BKN250
      TEMPO 2208/2212 2SM MIFG BR BKN002
     FM221500 10004KT P6SM SCT025 BKN200
     FM221800 11007KT P6SM VCTS SCT035CB SCT100 BKN200 PROB30
      2218/2221 3SM TSRA BKN025CB
     FM230100 13004KT P6SM SCT050 BKN150=

USA.gov is the U.S. government's official web portal to all federal, state and local government web resources and services.